Tracking 28514 objects as of 24-Feb-2024
HD Live streaming from Space Station
objects crossing your sky now

STARLINK-2555

Track STARLINK-2555 now!
10-day predictions
STARLINK-2555 is classified as:


NORAD ID: 48291
Int'l Code: 2021-036R
Perigee: 553.4 km
Apogee: 555.3 km
Inclination: 53.1 °
Period: 95.6 minutes
Semi major axis: 6925 km
RCS: Unknown
Launch date: April 29, 2021
Source: United States (US)
Launch site: AIR FORCE EASTERN TEST RANGE (AFETR)
Your satellite tracking list
Your tracking list is empty




NASA's NSSDC Master Catalog

Two Line Element Set (TLE):
1 48291U 21036R   24054.75864752  .00000638  00000-0  61708-4 0  9998
2 48291  53.0549 185.7412 0001328 101.1978 258.9160 15.06400516156619
Source of the keplerian elements: AFSPC